Location: Wildlife_Club
(35.6000°N, 81.4330°W)
Time: 07:53:59
(UTC-04:00)

Vanguard 2 Rocket - Pass Details

Date: 26 June 2019
Orbit: 554 x 3326 km, 32.9° (Epoch: 22 July)

Event Time Altitude Azimuth Distance (km) Brightness Sun altitude
Rises 21:03:48 0° 233° (SW) 3,090 9.9 -4.0°
Reaches altitude 10° 21:05:51 10° 226° (SW) 2,353 9.2 -4.4°
Maximum altitude 21:11:05 45° 154° (SSE) 1,415 7.5 -5.3°
Drops below altitude 10° 21:19:49 10° 85° (E) 3,905 9.7 -6.7°
Sets 21:24:12 0° 81° (E) 5,383 10.4 -7.5°
